West Palm Beach, FL

1:38 AM EST on February 21, 2017 (GMT -0500)
Palm Beach International

Weather History for KPBI - July, 2013

Change the Weather History Date:

Sunday, July 21, 2013

  Actual Average Record
Temperature  
Mean Temperature 84 °F 83 °F  
Max Temperature 90 °F 90 °F 101 °F (1942)
Min Temperature 77 °F 76 °F 67 °F (1910)
Degree Days  
Heating Degree Days 0 0  
Month to date heating degree days 0 0  
Since 1 June heating degree days 0 0  
Since 1 July heating degree days 0 0  
Cooling Degree Days 19 18  
Month to date cooling degree days 374 367  
Year to date cooling degree days 2048 1966  
Since 1 June cooling degree days 863 857  
Growing Degree Days 34 (Base 50)    
Moisture  
Dew Point 72 °F    
Average Humidity 69    
Maximum Humidity 79    
Minimum Humidity 59    
Precipitation  
Precipitation 0.08 in 0.17 in 2.01 in (2007)
Month to date precipitation 5.52 3.99  
Year to date precipitation 43.20 31.00  
Snow  
Snow 0.00 in - - ()
Month to date snowfall 0.0  
Since 1 June snowfall 0.0  
Since 1 July snowfall 0.0  
Snow Depth 0.00 in    
Sea Level Pressure  
Sea Level Pressure 30.11 in    
Wind  
Wind Speed 6 mph (SE)    
Max Wind Speed 17 mph    
Max Gust Speed 24 mph    
Visibility 10 miles    
Events Rain , Thunderstorm    
T = Trace of Precipitation, MM = Missing Value Source: NWS Daily Summary

Daily Weather History Graph

Daily Weather History Graph

Search for Another Location

Airport or City:

Trip Planner

Search our weather history database for the weather conditions in past years. The results will help you decide how hot, cold, wet, or windy it might be!

Date:

Astronomy

Jul. 21, 2013 Rise Set
Actual Time 6:39 AM EDT 8:13 PM EDT
Civil Twilight 6:14 AM EDT 8:39 PM EDT
Nautical Twilight 5:43 AM EDT 9:09 PM EDT
Astronomical Twilight 5:11 AM EDT 9:41 PM EDT
Moon 7:14 PM EDT 5:21 AM EDT
Length of Visible Light 14h 24m
Length of Day
13h 34m
Waxing Gibbous, 98% of the Moon is Illuminated
Jul 21
Waxing Gibbous
Jul 22
Full
Jul 29
Last Quarter
Aug 6
New
Aug 14
First Quarter

Hourly Weather History & Observations

Time (EDT) Temp. Heat Index Dew Point Humidity Pressure Visibility Wind Dir Wind Speed Gust Speed Precip Events Conditions
12:53 AM 79.0 °F - 71.1 °F 77% 30.09 in 10.0 mi Calm Calm - N/A   Scattered Clouds
1:53 AM 79.0 °F - 71.1 °F 77% 30.09 in 10.0 mi Calm Calm - N/A   Scattered Clouds
2:53 AM 79.0 °F - 71.1 °F 77% 30.08 in 10.0 mi NNW 3.5 mph - N/A   Mostly Cloudy
3:53 AM 79.0 °F - 71.1 °F 77% 30.07 in 10.0 mi Calm Calm - N/A   Mostly Cloudy
4:53 AM 79.0 °F - 71.1 °F 77% 30.06 in 10.0 mi Calm Calm - N/A   Mostly Cloudy
5:53 AM 80.1 °F 83.8 °F 72.0 °F 76% 30.08 in 10.0 mi Calm Calm - N/A   Mostly Cloudy
6:53 AM 80.1 °F 84.2 °F 73.0 °F 79% 30.09 in 10.0 mi South 3.5 mph - N/A   Mostly Cloudy
7:53 AM 81.0 °F 86.2 °F 73.9 °F 79% 30.11 in 10.0 mi Calm Calm - N/A   Mostly Cloudy
8:53 AM 82.9 °F 90.2 °F 75.0 °F 77% 30.12 in 10.0 mi SW 3.5 mph - N/A   Mostly Cloudy
9:53 AM 86.0 °F 95.1 °F 75.0 °F 70% 30.13 in 10.0 mi SSW 8.1 mph - N/A   Mostly Cloudy
10:53 AM 86.0 °F 93.0 °F 73.0 °F 65% 30.13 in 10.0 mi South 8.1 mph - N/A   Mostly Cloudy
11:53 AM 87.1 °F 93.6 °F 72.0 °F 61% 30.14 in 10.0 mi South 4.6 mph - N/A   Mostly Cloudy
12:53 PM 88.0 °F 96.5 °F 73.9 °F 63% 30.13 in 10.0 mi SE 6.9 mph - N/A   Mostly Cloudy
1:53 PM 90.0 °F 99.0 °F 73.9 °F 59% 30.12 in 10.0 mi SE 12.7 mph 18.4 mph N/A   Mostly Cloudy
2:53 PM 89.1 °F 98.0 °F 73.9 °F 61% 30.10 in 10.0 mi SE 12.7 mph - N/A   Mostly Cloudy
3:09 PM 89.6 °F 98.2 °F 73.4 °F 59% 30.09 in 10.0 mi ESE 15.0 mph - N/A Thunderstorm Thunderstorm
3:53 PM 86.0 °F 93.0 °F 73.0 °F 65% 30.09 in 10.0 mi SSE 12.7 mph - N/A Thunderstorm Thunderstorm
4:40 PM 84.2 °F 90.9 °F 73.4 °F 70% 30.08 in 10.0 mi SSE 9.2 mph - N/A   Mostly Cloudy
4:53 PM 84.9 °F 92.1 °F 73.9 °F 69% 30.07 in 10.0 mi SSE 10.4 mph - 0.00 in Rain Light Rain
5:53 PM 86.0 °F 95.1 °F 75.0 °F 70% 30.06 in 10.0 mi South 10.4 mph - 0.00 in   Mostly Cloudy
6:53 PM 86.0 °F 93.8 °F 73.9 °F 67% 30.05 in 10.0 mi SE 13.8 mph - N/A   Mostly Cloudy
7:53 PM 84.0 °F 91.2 °F 73.9 °F 72% 30.11 in 10.0 mi South 6.9 mph - N/A   Mostly Cloudy
8:53 PM 78.1 °F - 69.1 °F 74% 30.13 in 10.0 mi NNW 17.3 mph 24.2 mph 0.00 in Rain Light Rain
9:00 PM 77.0 °F - 68.0 °F 74% 30.13 in 10.0 mi North 11.5 mph - 0.00 in   Mostly Cloudy
9:53 PM 78.1 °F - 70.0 °F 76% 30.14 in 10.0 mi East 3.5 mph - 0.01 in Rain Light Rain
10:03 PM 77.0 °F - 71.6 °F 83% 30.15 in 10.0 mi ESE 3.5 mph - 0.00 in Thunderstorm Thunderstorm
10:53 PM 79.0 °F - 71.1 °F 77% 30.15 in 10.0 mi NE 4.6 mph - 0.03 in Rain , Thunderstorm Light Thunderstorms and Rain
11:21 PM 78.8 °F - 69.8 °F 74% 30.15 in 10.0 mi East 5.8 mph - 0.02 in Rain Light Rain
11:53 PM 79.0 °F - 70.0 °F 74% 30.14 in 10.0 mi ESE 8.1 mph - 0.04 in   Overcast